Flag for U.S.A. Weather past 2 weeks in Newark, New Jersey, U.S.A.

Now
41 °F

Light rain. Fog.


Feels Like: 36 °F
Forecast: 36 / 39 °F
Wind: 7 mph from Southwest

Location: Newark International Airport

Current Time: Mar 4, 2015 at 2:03:59 PM

Latest Report: Mar 4, 2015 at 12:51 PM


Visibility: 4 mi

Pressure: 29.84 "Hg

Humidity: 86%

Dew point: 37 °F

Location of NewarkLocation

Historic Weather in Newark — Graph

°F

Newark temperature yesterday

Maximum temperature yesterday: 34 °F (at 10:51 PM)
Minimum temperature yesterday: 22 °F (at 3:51 AM)
Average temperature yesterday: 28 °F

Past Weeks' High & Low Weather Summary

 TemperatureHumidityPressure
High42 °F (Feb 22, 3:51 PM)96% (Feb 21, 6:51 PM)30.83 "Hg (Feb 21, 6:51 PM)
Low1 °F (Feb 20, 5:51 AM)27% (Feb 28, 3:51 PM)29.73 "Hg (Feb 18, 11:51 PM)
Average24 °F58%30.19 "Hg
* Reported Feb 17 12:51 PM — Mar 4 12:51 PM, Newark, Weather by CustomWeather, © 2015

Note: Actual official high and low records may vary slightly from our data, if they occured in-between our weather recording intervals... More about our weather records

Advertising

Newark weather history for previous 24 hours

 ConditionsComfort  
Time TempWeatherWind HumidityBarometerVisibility
12:51 PM
Wed, Mar 4
41 °FLight rain. Fog.7 mph86%29.84 "Hg4 mi
11:51 AM39 °FFog.7 mph89%29.87 "Hg3 mi
10:51 AM38 °FLight rain. Fog.6 mph90%29.88 "Hg3 mi
9:51 AM37 °FLight rain. Fog.8 mph93%29.88 "Hg3 mi
8:51 AM36 °FLight rain. Fog.8 mph92%29.87 "Hg3 mi
7:51 AM36 °FLight rain. Fog.6 mph92%29.83 "Hg3 mi
6:51 AM35 °FFog.8 mph92%29.82 "Hg5 mi
5:51 AM35 °FLight rain. Fog.7 mph88%29.81 "Hg6 mi
4:51 AM36 °FMostly cloudy.6 mph89%29.79 "Hg8 mi
3:51 AM35 °FOvercast.7 mph92%29.75 "Hg8 mi
2:58 AM36 °FMostly cloudy.13 mph93%29.76 "Hg9 mi
1:51 AM35 °FMostly cloudy.10 mph92%29.79 "Hg9 mi
12:51 AM35 °FMostly cloudy.14 mph92%29.80 "Hg10 mi
11:51 PM
Tue, Mar 3
34 °FLight rain. Mostly cloudy.17 mph92%29.82 "Hg9 mi
10:51 PM34 °FLight rain. Fog.7 mph92%29.90 "Hg3 mi
10:03 PM34 °FLight rain. Fog.8 mph93%29.95 "Hg3 mi
9:51 PM33 °FLight rain. Fog.7 mph96%29.95 "Hg3 mi
8:51 PM33 °FLight freezing rain. Fog.10 mph92%29.98 "Hg3 mi
7:51 PM31 °FLight freezing rain. Ice fog.6 mph92%30.04 "Hg2 mi
6:51 PM29 °FSleet. Ice fog.6 mph93%30.10 "Hg2 mi
5:51 PM29 °FSleet. Ice fog.7 mph85%30.15 "Hg3 mi
4:51 PM28 °FLight snow. Ice fog.10 mph89%30.18 "Hg1 mi
3:51 PM29 °FLight snow. Mostly cloudy.7 mph82%30.23 "Hg1 mi
3:04 PM30 °FLight snow. Cloudy.12 mph69%30.26 "Hg2 mi
2:51 PM32 °FLight snow. Cloudy.13 mph56%30.27 "Hg9 mi
Weather by CustomWeather, © 2015

See weather overviewHow to use our weather pages